[[{"header":{"parameterUnit":"m.s-1","parameterCategory":1,"la1":30.2991,"la2":30.254,"lo1":-89.0895,"lo2":-89.0444,"dy":0.0017,"dx":0.0017,"nx":28,"ny":28,"refTime":"2026-03-04T09:00:00:Z","depth":0,"parameterNumber":2,"parameterNumberName":"U-component_of_WINDS"},"data":[0,0,0,0,0,0,0,0,0,0,0,0,0,0,0,0,0,0,0,0,0,0,0,0,0,0,0,0,0,0,0,0,0,0,0,0,0,0,0,0,0,0,0,0,0,0,0,0,0,0,0,0,0,0,0,0,0,0,-3.7684,-3.7684,0,-3.7726,-3.7727,-3.7727,-3.7689,-3.7688,-3.7686,-3.7685,-3.7726,-3.7728,-3.7731,0,0,0,0,0,0,0,0,0,0,0,0,0,-3.757,-3.7573,-3.7684,-3.7684,-3.7685,-3.7726,-3.7727,-3.7727,-3.769,-3.7688,-3.7686,-3.7684,-3.7725,-3.7728,-3.7731,0,0,0,0,0,0,0,0,0,0,0,0,0,-3.7617,-3.7573,-3.7684,-3.7671,-3.7671,-3.7726,-3.7727,-3.7727,-3.769,-3.7688,-3.7685,-3.7683,-3.7724,-3.7728,-3.7732,-3.7801,0,0,-3.7743,-3.7745,0,0,0,0,0,0,0,0,-3.7614,-3.7621,-3.7673,-3.7672,-3.7672,-3.77,-3.7702,-3.7752,-3.7691,-3.7683,-3.7685,-3.7682,-3.7719,-3.7723,-3.7736,-3.7803,-3.7805,-3.7743,-3.7746,-3.7747,-3.7748,0,0,0,0,0,0,0,-3.7611,-3.7619,-3.7701,-3.7673,-3.7673,-3.7663,-3.7667,-3.7711,-3.7713,-3.7683,-3.768,-3.7686,-3.7718,-3.7732,-3.7737,-3.7805,-3.7743,-3.7747,-3.7749,-3.7751,-3.7932,-3.7934,0,0,0,0,0,0,-3.7609,-3.7617,-3.7699,-3.7702,-3.7637,-3.7667,-3.7672,-3.7693,-3.7713,-3.7713,-3.7688,-3.7684,-3.7727,-3.7732,-3.7738,-3.782,-3.7747,-3.7751,-3.7753,-3.7929,-3.7933,-3.7935,0,0,0,0,0,0,-3.7607,-3.7617,-3.7697,-3.7659,-3.7668,-3.7672,-3.7696,-3.7695,-3.7709,-3.7716,-3.7716,-3.7702,-3.7726,-3.7733,-3.7786,-3.7821,-3.7753,-3.7756,-3.7926,-3.793,-3.7934,-3.7986,0,0,0,0,0,0,-3.7604,-3.7616,-3.7643,-3.7659,-3.767,-3.7745,-3.7698,-3.7698,-3.7716,-3.7712,-3.7729,-3.773,-3.7724,-3.778,-3.779,-3.7825,-3.7759,-3.7923,-3.7928,-3.7933,-3.7981,-3.7991,-3.7999,0,0,0,0,0,-3.76,-3.7655,-3.7644,-3.7654,-3.7703,-3.7747,-3.7753,-3.7746,-3.7719,-3.7746,-3.7751,-3.773,-3.7817,-3.7786,-3.7796,-3.7833,-3.7921,-3.7927,-3.7932,-3.7977,-3.7989,-3.7999,0,0,0,0,0,0,-3.7641,-3.7657,-3.7645,-3.7707,-3.7726,-3.774,-3.7773,-3.7759,-3.7785,-3.7779,-3.7769,-3.7773,-3.7829,-3.7837,-3.7803,-3.7902,-3.7864,-3.7872,-3.7895,-3.7906,-3.7916,-3.7911,-3.7762,0,0,0,0,0,-3.7657,-3.7692,-3.7704,-3.7757,-3.7768,-3.7769,-3.7788,-3.7781,-3.78,-3.7807,-3.7816,-3.7835,-3.7866,-3.7887,-3.7917,-3.7983,-3.7986,-3.8014,-3.8023,-3.8031,-3.8037,-3.8073,-3.8085,-3.7954,-3.7954,-3.7954,0,0,-3.7691,-3.7704,-3.7726,-3.7766,-3.778,-3.7815,-3.7776,-3.7815,-3.7841,-3.7813,-3.7863,-3.7871,-3.7892,-3.7952,-3.7979,-3.796,-3.8074,-3.8038,-3.8044,-3.8046,-3.808,-3.8093,-3.8104,-3.7958,-3.7957,-3.7957,0,0,-3.777,-3.7784,-3.783,-3.7846,-3.7868,-3.7869,-3.788,-3.7898,-3.7902,-3.7953,-3.7933,-3.7964,-3.8019,-3.8034,-3.805,-3.8138,-3.812,-3.8149,-3.8196,-3.8231,-3.8242,-3.8251,-3.8282,-3.8293,-3.8155,-3.8155,-3.8156,0,-3.7808,-3.7862,-3.7855,-3.7897,-3.7915,-3.7893,-3.794,-3.7955,-3.7985,-3.7998,-3.7978,-3.8047,-3.8059,-3.8123,-3.8145,-3.8158,-3.817,-3.8145,-3.8241,-3.825,-3.8258,-3.8288,-3.8299,-3.8159,-3.8158,-3.8158,-3.8158,0,-3.7908,-3.7946,-3.798,-3.8012,-3.8034,-3.8078,-3.8078,-3.8102,-3.8094,-3.8098,-3.8151,-3.8165,-3.8198,-3.8213,-3.8205,-3.8276,-3.8264,-3.8243,-3.8204,-3.8274,-3.8301,-3.8313,-3.8163,-3.8162,-3.8161,-3.816,0,0,-3.801,-3.804,-3.8053,-3.8067,-3.8092,-3.812,-3.8164,-3.8197,-3.8217,-3.824,-3.8276,-3.8324,-3.8305,-3.8322,-3.8317,-3.8348,-3.8417,-3.8323,-3.8323,-3.8339,-3.8496,-3.8511,-3.8524,-3.8407,-3.8409,-3.841,-3.8494,0,-3.8089,-3.8165,-3.8162,-3.8233,-3.8268,-3.8249,-3.8287,-3.8307,-3.8312,-3.8342,-3.8348,-3.8382,-3.8355,-3.8365,-3.8396,-3.8402,-3.8448,-3.8396,-3.8439,-3.844,-3.8432,-3.8538,-3.8553,-3.8631,-3.8505,-3.8507,-3.8508,0,-3.8191,-3.8219,-3.8293,-3.8314,-3.8329,-3.8363,-3.8393,-3.8423,-3.8445,-3.8447,-3.8468,-3.8458,-3.8502,-3.8465,-3.8526,-3.8491,-3.8508,-3.8515,-3.8518,-3.8519,-3.8477,-3.8541,-3.8656,-3.8667,-3.8525,-3.8523,-3.8522,0,-3.8257,-3.8313,-3.8365,-3.8378,-3.8404,-3.8429,-3.844,-3.846,-3.8481,-3.8508,-3.8521,-3.8553,-3.857,-3.8595,-3.8594,-3.8567,-3.8656,-3.8619,-3.8658,-3.8658,-3.8675,-3.8674,-3.8793,-3.869,-3.869,-3.869,-3.869,0,-3.8344,-3.839,-3.8395,-3.8427,-3.8478,-3.8475,-3.8526,-3.8536,-3.8554,-3.8587,-3.8574,-3.8606,-3.8603,-3.8636,-3.8635,-3.8686,-3.8694,-3.8696,-3.8695,-3.8696,-3.8696,-3.8706,-3.8699,-3.8693,-3.8692,-3.8692,-3.8691,0,-3.8425,-3.843,-3.8485,-3.8507,-3.8513,-3.855,-3.8568,-3.8598,-3.8604,-3.8646,-3.8656,-3.8665,-3.8702,-3.8705,-3.8747,-3.8747,-3.8808,-3.8802,-3.8801,-3.8799,-3.8838,-3.8833,-3.8965,-3.8982,-3.8871,-3.8872,-3.8873,0,-3.8479,-3.8514,-3.854,-3.8562,-3.8576,-3.8611,-3.8632,-3.8632,-3.8655,-3.8684,-3.8711,-3.8748,-3.8776,-3.8837,-3.8846,-3.888,-3.8873,-3.8918,-3.8878,-3.8878,-3.8872,-3.8869,-3.8873,-3.8924,-3.8925,-3.8926,-3.8927,0,-3.8575,-3.8576,-3.8608,-3.8641,-3.8668,-3.8694,-3.8718,-3.8737,-3.8739,-3.8766,-3.8804,-3.8827,-3.8872,-3.8908,-3.8941,-3.8953,-3.8941,-3.894,-3.8951,-3.8951,-3.8948,-3.8949,-3.882,-3.8936,-3.8935,-3.8935,-3.8934,-3.8934,-3.8642,-3.8673,-3.8697,-3.8733,-3.8752,-3.8775,-3.8805,-3.8816,-3.8848,-3.8885,-3.8883,-3.8926,-3.8949,-3.8992,-3.9007,-3.9041,-3.9025,-3.9041,-3.9045,-3.9048,-3.9051,-3.8945,-3.9047,-3.9047,-3.9046,-3.9046,-3.9046,0,-3.8736,-3.8751,-3.8785,-3.882,-3.8849,-3.8837,-3.8864,-3.8888,-3.8926,-3.8949,-3.8979,-3.9024,-3.906,-3.9074,-3.9109,-3.9133,-3.9128,-3.9142,-3.9139,-3.9142,-3.9063,-3.905,-3.9145,-3.9145,-3.9145,-3.9145,-3.9145,-3.9145,-3.8788,-3.8839,-3.8844,-3.8905,-3.892,-3.8962,-3.8978,-3.9,-3.9019,-3.907,-3.91,-3.911,-3.9129,-3.9166,-3.9199,-3.9202,-3.9215,-3.9231,-3.9232,-3.9157,-3.9147,-3.9138,-3.9125,-3.9234,-3.9234,-3.9307,-3.9308,-3.9308]},{"header":{"parameterUnit":"m.s-1","parameterCategory":1,"la1":30.2991,"la2":30.254,"lo1":-89.0895,"lo2":-89.0444,"dy":0.0017,"dx":0.0017,"nx":28,"ny":28,"refTime":"2026-03-04T09:00:00:Z","depth":0,"parameterNumber":3,"parameterNumberName":"V-component_of_WINDS"},"data":[0,0,0,0,0,0,0,0,0,0,0,0,0,0,0,0,0,0,0,0,0,0,0,0,0,0,0,0,0,0,0,0,0,0,0,0,0,0,0,0,0,0,0,0,0,0,0,0,0,0,0,0,0,0,0,0,0,0,0.9556,0.9557,0,0.962,0.9621,0.9621,0.9673,0.9674,0.9674,0.9675,0.9738,0.974,0.9741,0,0,0,0,0,0,0,0,0,0,0,0,0,0.948,0.9481,0.9556,0.9557,0.9558,0.962,0.9621,0.9622,0.9673,0.9674,0.9675,0.9675,0.9738,0.9739,0.9741,0,0,0,0,0,0,0,0,0,0,0,0,0,0.9525,0.9481,0.9556,0.9591,0.9595,0.962,0.9621,0.9622,0.9673,0.9674,0.9675,0.9676,0.9738,0.9739,0.9741,0.9736,0,0,0.9746,0.9747,0,0,0,0,0,0,0,0,0.9522,0.9528,0.9585,0.9589,0.9593,0.964,0.9617,0.966,0.9673,0.9643,0.9675,0.9676,0.9705,0.9709,0.9719,0.9739,0.9741,0.9747,0.9748,0.9748,0.9749,0,0,0,0,0,0,0,0.9519,0.9525,0.9581,0.9586,0.9591,0.9604,0.9611,0.9625,0.9669,0.9646,0.965,0.9657,0.9707,0.9718,0.9721,0.9742,0.9746,0.9748,0.9749,0.975,0.9764,0.9763,0,0,0,0,0,0,0.9511,0.9522,0.9579,0.9583,0.9559,0.9605,0.9613,0.9624,0.9669,0.9676,0.9656,0.9659,0.9714,0.9719,0.9724,0.9723,0.9748,0.975,0.9751,0.9764,0.9764,0.9763,0,0,0,0,0,0,0.9509,0.9515,0.9577,0.9554,0.9563,0.9605,0.9617,0.9625,0.9635,0.9676,0.9684,0.9659,0.9715,0.9721,0.9733,0.9725,0.9751,0.9752,0.9765,0.9764,0.9763,0.9719,0,0,0,0,0,0,0.9506,0.9514,0.9512,0.9554,0.9564,0.9585,0.9616,0.9625,0.9638,0.9643,0.9681,0.9688,0.9716,0.973,0.9735,0.9728,0.9754,0.9766,0.9765,0.9764,0.9721,0.9716,0.9712,0,0,0,0,0,0.9503,0.9496,0.9512,0.9518,0.9562,0.9584,0.959,0.9623,0.9637,0.9636,0.9663,0.9687,0.9725,0.9731,0.9737,0.973,0.9767,0.9765,0.9764,0.9723,0.9717,0.9712,0,0,0,0,0,0,0.9451,0.9502,0.952,0.9526,0.9551,0.9593,0.9592,0.9615,0.9636,0.9639,0.9679,0.9687,0.9695,0.9714,0.9719,0.9729,0.9749,0.9749,0.9716,0.9711,0.9707,0.9702,0.9755,0,0,0,0,0,0.9441,0.9454,0.9498,0.9499,0.9511,0.9549,0.956,0.9584,0.961,0.9621,0.9648,0.9673,0.9692,0.9702,0.9721,0.9724,0.9734,0.9723,0.9718,0.9715,0.9714,0.9719,0.9715,0.9758,0.9758,0.9758,0,0,0.9418,0.9448,0.9454,0.9489,0.9511,0.9525,0.9557,0.957,0.9581,0.9622,0.9636,0.9658,0.9688,0.9696,0.9701,0.9712,0.9705,0.9713,0.9709,0.9711,0.9717,0.9713,0.971,0.9757,0.9757,0.9757,0,0,0.9385,0.9408,0.9413,0.9435,0.9468,0.9495,0.9496,0.9536,0.9552,0.9567,0.9599,0.9613,0.9642,0.9664,0.9678,0.9657,0.968,0.9662,0.9638,0.9643,0.964,0.9637,0.9631,0.9628,0.9661,0.966,0.966,0,0.9353,0.9375,0.9412,0.9424,0.9439,0.9479,0.9485,0.9504,0.9541,0.9551,0.9564,0.9604,0.9627,0.9642,0.9637,0.9647,0.9651,0.9657,0.9638,0.9635,0.9633,0.9628,0.9625,0.9658,0.9658,0.9659,0.9659,0,0.9335,0.935,0.935,0.9387,0.9403,0.9411,0.945,0.9461,0.9484,0.9509,0.9525,0.9555,0.9581,0.9587,0.9608,0.9606,0.9612,0.963,0.9651,0.9626,0.9622,0.962,0.9655,0.9656,0.9656,0.9657,0,0,0.9269,0.9329,0.9328,0.9347,0.9388,0.94,0.9412,0.9439,0.9449,0.9474,0.9485,0.9511,0.9529,0.9546,0.9571,0.9575,0.9559,0.9593,0.9595,0.9587,0.956,0.9546,0.9543,0.9575,0.9574,0.9574,0.9558,0,0.9244,0.9266,0.9301,0.9312,0.9328,0.9368,0.9378,0.9405,0.9429,0.9446,0.9473,0.9492,0.9514,0.9525,0.9531,0.9559,0.9554,0.9561,0.9586,0.9586,0.9578,0.9541,0.9526,0.9509,0.9556,0.9556,0.9556,0,0.9216,0.9241,0.9254,0.9297,0.9305,0.9313,0.9343,0.9359,0.9391,0.9408,0.9429,0.9456,0.9471,0.9491,0.9513,0.9517,0.9529,0.9545,0.9545,0.9549,0.957,0.9545,0.9504,0.9502,0.9553,0.9553,0.9554,0,0.9169,0.9205,0.9219,0.9233,0.9283,0.9288,0.9309,0.9342,0.9358,0.9383,0.9394,0.942,0.9435,0.9455,0.949,0.9501,0.9509,0.9531,0.9525,0.9524,0.9525,0.9524,0.9487,0.9532,0.9532,0.9532,0.9532,0,0.9137,0.9144,0.9199,0.9207,0.9217,0.9257,0.9266,0.929,0.932,0.9334,0.937,0.9382,0.9427,0.9446,0.9473,0.9488,0.9494,0.951,0.9517,0.9507,0.9505,0.9516,0.9518,0.9531,0.9531,0.9531,0.9531,0,0.9085,0.9122,0.914,0.9186,0.9198,0.9204,0.9244,0.9254,0.9282,0.93,0.9306,0.935,0.9373,0.941,0.9444,0.9463,0.9474,0.9485,0.9463,0.9468,0.9461,0.9462,0.943,0.9428,0.9472,0.9472,0.9472,0,0.9062,0.9069,0.9117,0.913,0.915,0.917,0.9187,0.9227,0.9243,0.9282,0.9287,0.9314,0.9338,0.9374,0.9409,0.9436,0.9449,0.9436,0.9453,0.9444,0.9451,0.945,0.9452,0.9432,0.9431,0.9431,0.943,0,0.9019,0.9038,0.906,0.909,0.9109,0.9134,0.9161,0.9169,0.9216,0.9232,0.9258,0.9276,0.9313,0.9339,0.9372,0.9394,0.942,0.9425,0.9425,0.9415,0.9403,0.9411,0.9454,0.9425,0.9426,0.9426,0.9426,0.9426,0.8982,0.8991,0.9027,0.9052,0.9077,0.9102,0.9115,0.9145,0.9167,0.9201,0.9223,0.9248,0.9282,0.9329,0.935,0.937,0.9382,0.9382,0.9382,0.9381,0.9379,0.9399,0.9376,0.9376,0.9377,0.9377,0.9377,0,0.8942,0.8968,0.899,0.9028,0.9048,0.9072,0.9104,0.9119,0.914,0.917,0.9194,0.9224,0.9251,0.9289,0.9319,0.9328,0.9341,0.9335,0.9335,0.934,0.9366,0.9363,0.9324,0.9324,0.9324,0.9324,0.9324,0.9324,0.8924,0.8941,0.8964,0.8995,0.9021,0.9046,0.9062,0.9086,0.9111,0.9143,0.9166,0.9191,0.9225,0.9258,0.9285,0.9295,0.9305,0.9295,0.931,0.9333,0.9338,0.9342,0.934,0.9297,0.9297,0.9282,0.9282,0.9282]}]]